Location: Unspecified
(0.0000°N, 0.0000°E)
Time: 15:09:26
(UTC+00:00)

deb Delta 126 - Pass Details

Date: 22 February 2026
Orbit: 1458 x 1580 km, 101.9° (Epoch: 6 March)

Event Time Altitude Azimuth Distance (km) Brightness Sun altitude
Rises 02:54:33 0° 28° (NNE) 4,754 ? -48.7°
Reaches altitude 10° 02:57:33 10° 34° (NE) 3,773 ? -48.0°
Enters shadow 03:02:39 35° 56° (ENE) 2,338 ? -46.7°
Exits shadow 03:07:02 48° 125° (SE) 1,968 ? -45.7°
Drops below altitude 10° 03:14:30 10° 179° (S) 3,747 ? -43.9°
Sets 03:17:26 0° 183° (S) 4,719 ? -43.1°
